Volver al catálogo

SL-12 R/B(2)

ActivoMEO
NORAD 23516·ROCKET BODY·🇷🇺 Russia

Lanzado Mar 7, 1995 desde Baikonur Cosmodrome

Loading…

Próximos Pases (próximas 24 horas)

TLE

ActualizadoSource: Space-Track

Época: Sep 13, 2026, 11:25 UTC

1 23516U 95009F   26256.47624056 -.00000031  00000-0  00000-0 0  9990
2 23516  63.9324 297.1997 0023709 233.0892 237.3224  2.13308508245563

Sigue SL-12 R/B(2) en tiempo real con AllMySat

Download on the App Store